ID TEMP HUMIDITY DATE
1 28 24 2022-06-25 13:53:02
2 28 22 2022-06-25 13:42:58
3 29 22 2022-06-25 13:32:49
4 29 28 2022-06-25 13:22:47
5 28 33 2022-06-25 13:12:45
6 28 32 2022-06-25 13:02:42
7 28 33 2022-06-25 12:52:34
8 28 33 2022-06-25 12:42:27
9 28 36 2022-06-25 12:32:20
10 28 30 2022-06-25 12:22:14
11 27 27 2022-06-25 12:12:10
12 27 26 2022-06-25 12:02:07
13 27 26 2022-06-25 11:52:02
14 27 26 2022-06-25 11:41:59
15 27 26 2022-06-25 11:31:54
16 27 26 2022-06-25 11:21:49
17 27 26 2022-06-25 11:11:47
18 27 26 2022-06-25 11:01:44
19 27 26 2022-06-25 10:51:43
20 27 27 2022-06-25 10:41:42
21 27 26 2022-06-25 10:31:41
22 26 27 2022-06-25 10:21:39
23 26 27 2022-06-25 10:11:37
24 26 27 2022-06-25 10:01:35
25 26 27 2022-06-25 09:51:34
26 26 26 2022-06-25 09:41:32
27 26 26 2022-06-25 09:31:30
28 26 26 2022-06-25 09:21:28
29 26 26 2022-06-25 09:11:26
30 26 26 2022-06-25 09:01:25
31 26 26 2022-06-25 08:51:24
32 26 26 2022-06-25 08:41:21
33 26 32 2022-06-25 08:31:19
34 25 24 2022-06-25 08:21:17
35 25 26 2022-06-25 08:11:16
36 25 26 2022-06-25 08:01:14
37 25 31 2022-06-25 07:51:13
38 25 26 2022-06-25 07:41:12
39 25 27 2022-06-25 07:31:12
40 25 37 2022-06-25 07:21:10
41 25 26 2022-06-25 07:11:08
42 25 31 2022-06-25 07:01:08
43 25 25 2022-06-25 06:51:06
44 25 26 2022-06-25 06:41:06
45 26 34 2022-06-25 06:31:05
46 25 29 2022-06-25 06:21:02
47 25 26 2022-06-25 06:11:01
48 25 29 2022-06-25 06:00:57
49 25 24 2022-06-25 05:50:55
50 26 23 2022-06-25 05:40:53
51 26 23 2022-06-25 05:30:51
52 27 30 2022-06-25 05:20:50
53 27 33 2022-06-25 05:10:49
54 27 30 2022-06-25 05:00:48
55 27 42 2022-06-25 04:50:47
56 27 40 2022-06-25 04:40:46
57 26 35 2022-06-25 04:30:46
58 26 34 2022-06-25 04:20:43
59 25 29 2022-06-25 04:10:42
60 25 27 2022-06-25 04:00:42
61 25 25 2022-06-25 03:50:40
62 25 28 2022-06-25 03:40:40
63 25 31 2022-06-25 03:30:39
64 25 28 2022-06-25 03:20:38
65 25 25 2022-06-25 03:10:37
66 25 26 2022-06-25 03:00:35
67 25 28 2022-06-25 02:50:34
68 25 29 2022-06-25 02:40:33
69 25 26 2022-06-25 02:30:32
70 25 26 2022-06-25 02:20:32
71 25 30 2022-06-25 02:10:31
72 25 25 2022-06-25 02:00:30
73 25 25 2022-06-25 01:50:30
74 25 25 2022-06-25 01:40:29
75 25 25 2022-06-25 01:30:28
76 25 25 2022-06-25 01:20:28
77 25 25 2022-06-25 01:10:27
78 25 25 2022-06-25 01:00:26
79 25 25 2022-06-25 00:50:26
80 25 25 2022-06-25 00:40:25
81 25 25 2022-06-25 00:30:25
82 25 25 2022-06-25 00:20:24
83 25 26 2022-06-25 00:10:23
84 25 26 2022-06-25 00:00:22
85 25 25 2022-06-24 23:50:21
86 25 23 2022-06-24 23:40:20
87 25 23 2022-06-24 23:30:20
88 25 23 2022-06-24 23:20:19
89 25 23 2022-06-24 23:10:18
90 25 23 2022-06-24 23:00:17
91 25 22 2022-06-24 22:50:17
92 26 23 2022-06-24 22:40:17
93 26 22 2022-06-24 22:30:16
94 26 22 2022-06-24 22:20:16
95 26 23 2022-06-24 22:10:15
96 26 22 2022-06-24 22:00:15
97 27 22 2022-06-24 21:50:14
98 27 21 2022-06-24 21:40:14
99 27 21 2022-06-24 21:30:14
100 28 28 2022-06-24 21:20:12
1   2   3   4   5       Next